TimeCST,TemperatureF,Dew PointF,Humidity,Sea Level PressureIn,VisibilityMPH,Wind Direction,Wind SpeedMPH,Gust SpeedMPH,PrecipitationIn,Events,Conditions,WindDirDegrees,DateUTC
12:15 AM,36.3,33.3,89,29.66,4.0,West,11.5,-,N/A,,Overcast,270,2013-02-27 06:15:00
12:35 AM,36.1,33.4,90,29.66,5.0,West,10.4,18.4,N/A,,Overcast,270,2013-02-27 06:35:00
12:55 AM,36.0,33.3,90,29.67,7.0,West,15.0,18.4,N/A,,Overcast,270,2013-02-27 06:55:00
1:15 AM,35.8,33.1,90,29.67,10.0,West,13.8,20.7,N/A,,Overcast,280,2013-02-27 07:15:00
1:35 AM,35.8,32.9,89,29.66,10.0,West,18.4,21.9,N/A,,Overcast,280,2013-02-27 07:35:00
1:55 AM,35.8,32.4,87,29.68,10.0,West,15.0,19.6,N/A,,Overcast,280,2013-02-27 07:55:00
2:15 AM,35.8,32.2,87,29.67,10.0,West,12.7,-,N/A,,Overcast,280,2013-02-27 08:15:00
2:35 AM,35.8,32.2,87,29.66,7.0,West,10.4,-,N/A,,Overcast,280,2013-02-27 08:35:00
2:55 AM,35.8,32.2,87,29.67,10.0,West,11.5,17.3,N/A,,Overcast,280,2013-02-27 08:55:00
3:35 AM,36.0,32.0,86,29.68,10.0,West,13.8,-,N/A,,Overcast,260,2013-02-27 09:35:00
3:55 AM,36.0,32.2,86,29.69,7.0,West,13.8,-,N/A,,Overcast,260,2013-02-27 09:55:00
4:15 AM,35.8,32.4,87,29.69,3.0,West,12.7,-,N/A,Snow,Light Snow,260,2013-02-27 10:15:00
4:35 AM,35.6,32.4,88,29.69,4.0,West,10.4,-,N/A,Snow,Light Snow,270,2013-02-27 10:35:00
4:55 AM,35.6,32.5,89,29.70,3.0,West,11.5,-,N/A,Snow,Light Snow,260,2013-02-27 10:55:00
5:15 AM,35.6,32.9,90,29.70,4.0,WSW,16.1,-,N/A,Snow,Light Snow,250,2013-02-27 11:15:00
5:35 AM,35.6,32.9,90,29.71,5.0,West,15.0,21.9,N/A,Snow,Light Snow,260,2013-02-27 11:35:00
5:55 AM,35.6,32.9,90,29.71,5.0,West,15.0,-,N/A,Snow,Light Snow,260,2013-02-27 11:55:00
6:50 AM,35.6,32.0,87,29.72,3.0,West,15.0,-,N/A,,Overcast,260,2013-02-27 12:50:00
7:50 AM,35.6,32.0,87,29.74,3.0,West,15.0,23.0,N/A,Snow,Light Snow,270,2013-02-27 13:50:00
9:50 AM,37.4,33.8,87,29.75,2.5,West,16.1,-,N/A,Snow,Light Snow,270,2013-02-27 15:50:00
11:55 AM,37.4,33.8,87,29.77,2.0,West,16.1,23.0,N/A,Snow,Light Snow,280,2013-02-27 17:55:00
1:50 PM,35.6,33.8,93,29.77,1.8,West,16.1,-,N/A,Snow,Light Snow,260,2013-02-27 19:50:00
4:50 PM,35.6,32.0,87,29.81,2.5,West,17.3,-,N/A,Snow,Light Snow,270,2013-02-27 22:50:00
5:55 PM,35.6,32.0,87,29.84,4.0,West,17.3,-,N/A,,Overcast,270,2013-02-27 23:55:00
6:45 PM,35.6,32.0,87,29.85,10.0,West,11.5,-,N/A,,Overcast,270,2013-02-28 00:45:00
8:45 PM,33.8,30.2,87,29.87,7.0,West,11.5,-,N/A,,Overcast,260,2013-02-28 02:45:00
9:15 PM,34.7,31.1,87,29.87,7.0,West,13.8,-,N/A,,Overcast,260,2013-02-28 03:15:00
9:35 PM,34.7,31.3,87,29.87,7.0,West,12.7,-,N/A,,Overcast,270,2013-02-28 03:35:00
9:45 PM,33.8,32.0,93,29.87,7.0,West,16.1,-,N/A,,Overcast,280,2013-02-28 03:45:00
10:15 PM,34.7,31.1,87,29.87,7.0,West,10.4,-,N/A,,Overcast,270,2013-02-28 04:15:00
10:35 PM,34.7,30.9,86,29.87,10.0,West,12.7,19.6,N/A,,Overcast,280,2013-02-28 04:35:00
10:55 PM,34.9,30.6,84,29.87,10.0,West,12.7,-,N/A,,Overcast,280,2013-02-28 04:55:00
11:15 PM,34.7,30.6,85,29.87,10.0,West,11.5,-,N/A,,Overcast,280,2013-02-28 05:15:00
11:35 PM,34.7,30.4,84,29.87,10.0,West,13.8,-,N/A,,Overcast,280,2013-02-28 05:35:00